timestamp,wind_dir_avg,wind_spd_avg,wind_spd_max_dir,wind_spd_gust,battery_voltage,lat,long
2021-06-07 00:04:01+00:00,83.0,3.98,78.0,5.62,13.37,47.59359,-54.27349
2021-06-07 00:14:01+00:00,77.0,3.87,66.0,5.58,12.81,47.59359,-54.27349
2021-06-07 00:24:01+00:00,75.0,3.26,57.0,5.31,12.81,47.59359,-54.27349
2021-06-07 00:34:01+00:00,89.0,2.21,70.0,3.56,12.81,47.59359,-54.27349
2021-06-07 00:44:01+00:00,97.0,1.99,92.0,3.09,12.81,47.59359,-54.27349
2021-06-07 00:54:01+00:00,80.0,2.9,70.0,4.28,12.81,47.59359,-54.27349
2021-06-07 01:04:01+00:00,54.0,5.96,46.0,6.58,12.81,47.59359,-54.27349
2021-06-07 01:14:01+00:00,56.0,6.87,55.0,7.6,12.65,47.59359,-54.27349
2021-06-07 01:24:01+00:00,66.0,4.35,67.0,5.22,12.65,47.59359,-54.27349
2021-06-07 01:34:01+00:00,62.0,4.08,66.0,4.69,12.65,47.59359,-54.27349
2021-06-07 01:44:01+00:00,67.0,5.57,71.0,6.85,12.65,47.59359,-54.27349
2021-06-07 01:54:01+00:00,68.0,5.47,65.0,6.58,12.65,47.59359,-54.27349
2021-06-07 02:04:01+00:00,70.0,4.28,55.0,5.21,12.65,47.59359,-54.27349
2021-06-07 02:14:00+00:00,71.0,3.85,70.0,5.07,12.57,47.59359,-54.27349
2021-06-07 02:24:00+00:00,77.0,3.66,76.0,5.82,12.57,47.59359,-54.27349
2021-06-07 02:34:00+00:00,72.0,3.87,73.0,5.41,12.57,47.59359,-54.27349
2021-06-07 02:44:00+00:00,65.0,4.25,64.0,4.76,12.57,47.59359,-54.27349
2021-06-07 02:54:00+00:00,70.0,3.86,68.0,5.1,12.57,47.59359,-54.27349
2021-06-07 03:04:00+00:00,85.0,4.65,93.0,6.22,12.57,47.59359,-54.27349
2021-06-07 03:14:00+00:00,73.0,4.24,73.0,5.1,12.57,47.59359,-54.27349
2021-06-07 03:24:00+00:00,94.0,5.52,93.0,6.76,12.57,47.59359,-54.27349
2021-06-07 03:34:00+00:00,88.0,5.08,94.0,6.8,12.57,47.59359,-54.27349
2021-06-07 03:44:00+00:00,88.0,5.98,91.0,8.51,12.57,47.59359,-54.27349
2021-06-07 03:54:00+00:00,73.0,4.29,84.0,6.8,12.57,47.59359,-54.27349
2021-06-07 04:04:00+00:00,84.0,6.12,82.0,6.83,12.57,47.59359,-54.27349
2021-06-07 04:14:01+00:00,90.0,5.86,90.0,6.97,12.57,47.59359,-54.27349
2021-06-07 04:24:01+00:00,83.0,6.21,82.0,7.38,12.57,47.59359,-54.27349
2021-06-07 04:34:01+00:00,86.0,5.84,84.0,6.35,12.57,47.59359,-54.27349
2021-06-07 04:44:01+00:00,85.0,5.46,83.0,6.35,12.57,47.59359,-54.27349
2021-06-07 04:54:01+00:00,88.0,5.51,85.0,6.15,12.57,47.59359,-54.27349
2021-06-07 05:04:01+00:00,91.0,1.72,91.0,5.18,12.57,47.59359,-54.27349
2021-06-07 05:14:00+00:00,99.0,3.82,101.0,6.07,12.49,47.59359,-54.27349
2021-06-07 05:24:00+00:00,109.0,5.22,103.0,6.4,12.49,47.59359,-54.27349
2021-06-07 05:34:00+00:00,102.0,4.64,104.0,5.72,12.49,47.59359,-54.27349
2021-06-07 05:44:00+00:00,89.0,2.88,90.0,5.56,12.49,47.59359,-54.27349
2021-06-07 05:54:00+00:00,98.0,5.71,105.0,6.24,12.49,47.59359,-54.27349
2021-06-07 06:04:00+00:00,88.0,5.59,89.0,5.92,12.49,47.59359,-54.27349
2021-06-07 06:14:00+00:00,87.0,6.09,88.0,7.0,12.49,47.59359,-54.27349
2021-06-07 06:24:00+00:00,90.0,4.5,90.0,6.19,12.49,47.59359,-54.27349
2021-06-07 06:34:00+00:00,88.0,5.88,87.0,6.68,12.49,47.59359,-54.27349
2021-06-07 06:44:00+00:00,92.0,4.68,89.0,5.79,12.49,47.59359,-54.27349
2021-06-07 06:54:00+00:00,87.0,5.92,88.0,6.57,12.49,47.59359,-54.27349
2021-06-07 07:04:00+00:00,86.0,6.46,87.0,6.93,12.49,47.59359,-54.27349
2021-06-07 07:14:00+00:00,84.0,6.09,81.0,6.78,12.41,47.59359,-54.27349
2021-06-07 07:24:00+00:00,87.0,6.1,89.0,7.19,12.41,47.59359,-54.27349
2021-06-07 07:34:00+00:00,90.0,5.75,95.0,7.17,12.41,47.59359,-54.27349
2021-06-07 07:44:00+00:00,90.0,6.0,90.0,6.51,12.41,47.59359,-54.27349
2021-06-07 07:54:00+00:00,93.0,6.12,92.0,6.85,12.41,47.59359,-54.27349
2021-06-07 08:04:00+00:00,90.0,6.08,93.0,6.45,12.41,47.59359,-54.27349
2021-06-07 08:14:01+00:00,83.0,2.68,84.0,5.91,12.49,47.59359,-54.27349
2021-06-07 08:24:01+00:00,93.0,4.12,103.0,5.89,12.49,47.59359,-54.27349
2021-06-07 08:34:01+00:00,103.0,5.89,103.0,6.7,12.49,47.59359,-54.27349
2021-06-07 08:44:01+00:00,98.0,6.03,96.0,6.28,12.49,47.59359,-54.27349
2021-06-07 08:54:01+00:00,101.0,2.84,94.0,5.59,12.49,47.59359,-54.27349
2021-06-07 09:04:01+00:00,63.0,0.53,82.0,1.74,12.49,47.59359,-54.27349
2021-06-07 09:14:01+00:00,119.0,1.35,92.0,3.08,12.73,47.59359,-54.27349
2021-06-07 09:24:01+00:00,99.0,5.19,95.0,6.13,12.73,47.59359,-54.27349
2021-06-07 09:34:01+00:00,98.0,2.11,87.0,5.54,12.73,47.59359,-54.27349
2021-06-07 09:44:01+00:00,101.0,6.21,99.0,6.49,12.73,47.59359,-54.27349
2021-06-07 09:54:01+00:00,116.0,2.45,104.0,4.52,12.73,47.59359,-54.27349
2021-06-07 10:04:01+00:00,145.0,2.55,118.0,4.27,12.73,47.59359,-54.27349
2021-06-07 10:14:01+00:00,152.0,3.29,130.0,4.58,13.44,47.59359,-54.27349
2021-06-07 10:24:01+00:00,183.0,2.32,186.0,2.63,13.44,47.59359,-54.27349
2021-06-07 10:34:01+00:00,191.0,2.48,191.0,2.92,13.44,47.59359,-54.27349
2021-06-07 10:44:01+00:00,210.0,3.01,211.0,3.38,13.44,47.59359,-54.27349
2021-06-07 10:54:01+00:00,221.0,3.11,214.0,3.44,13.44,47.59359,-54.27349
2021-06-07 11:04:01+00:00,224.0,2.84,224.0,3.53,13.44,47.59359,-54.27349
2021-06-07 11:14:01+00:00,215.0,2.71,218.0,3.2,13.84,47.59359,-54.27349
2021-06-07 11:24:01+00:00,210.0,3.37,203.0,3.83,13.84,47.59359,-54.27349
2021-06-07 11:34:01+00:00,217.0,3.59,215.0,3.96,13.84,47.59359,-54.27349
2021-06-07 11:44:01+00:00,219.0,3.65,216.0,4.05,13.84,47.59359,-54.27349
2021-06-07 11:54:01+00:00,226.0,4.4,227.0,4.8,13.84,47.59359,-54.27349
2021-06-07 12:04:01+00:00,224.0,5.7,229.0,6.53,13.84,47.59359,-54.27349
2021-06-07 12:14:01+00:00,216.0,5.44,220.0,6.13,13.84,47.59359,-54.27349
2021-06-07 12:24:01+00:00,221.0,5.03,227.0,6.09,13.84,47.59359,-54.27349
2021-06-07 12:34:01+00:00,215.0,6.62,216.0,7.05,13.84,47.59359,-54.27349
2021-06-07 12:44:01+00:00,204.0,7.51,205.0,7.96,13.84,47.59359,-54.27349
2021-06-07 12:54:01+00:00,201.0,6.97,202.0,7.42,13.84,47.59359,-54.27349
2021-06-07 13:04:01+00:00,207.0,7.9,208.0,8.56,13.84,47.59359,-54.27349
2021-06-07 13:14:01+00:00,205.0,8.52,205.0,9.41,13.92,47.59359,-54.27349
2021-06-07 13:24:01+00:00,213.0,9.14,213.0,9.6,13.92,47.59359,-54.27349
2021-06-07 13:34:01+00:00,201.0,8.21,205.0,9.28,13.92,47.59359,-54.27349
2021-06-07 13:44:01+00:00,199.0,8.05,202.0,8.77,13.92,47.59359,-54.27349
2021-06-07 13:54:01+00:00,203.0,8.63,207.0,10.09,13.92,47.59359,-54.27349
2021-06-07 14:04:01+00:00,206.0,8.98,206.0,10.1,13.92,47.59359,-54.27349
2021-06-07 14:14:01+00:00,209.0,8.93,209.0,9.86,14.08,47.59359,-54.27349
2021-06-07 14:24:01+00:00,208.0,10.09,207.0,10.91,14.08,47.59359,-54.27349
2021-06-07 14:34:01+00:00,199.0,10.23,200.0,11.25,14.08,47.59359,-54.27349
2021-06-07 14:44:01+00:00,202.0,10.41,205.0,11.52,14.08,47.59359,-54.27349
2021-06-07 14:54:01+00:00,199.0,10.81,198.0,11.47,14.08,47.59359,-54.27349
2021-06-07 15:04:01+00:00,202.0,11.76,202.0,13.07,14.08,47.59359,-54.27349
2021-06-07 15:14:01+00:00,205.0,11.45,215.0,12.8,14.16,47.59359,-54.27349
2021-06-07 15:24:01+00:00,203.0,11.12,205.0,12.87,14.16,47.59359,-54.27349
2021-06-07 15:34:01+00:00,205.0,12.17,211.0,13.83,14.16,47.59359,-54.27349
2021-06-07 15:44:01+00:00,207.0,10.85,209.0,12.16,14.16,47.59359,-54.27349
2021-06-07 15:54:01+00:00,204.0,11.07,204.0,12.09,14.16,47.59359,-54.27349
2021-06-07 16:04:01+00:00,206.0,10.71,204.0,12.66,14.16,47.59359,-54.27349
2021-06-07 16:14:01+00:00,199.0,12.3,200.0,14.5,14.24,47.59359,-54.27349
2021-06-07 16:24:01+00:00,208.0,11.88,212.0,13.14,14.24,47.59359,-54.27349
2021-06-07 16:34:01+00:00,206.0,11.94,214.0,13.42,14.24,47.59359,-54.27349
2021-06-07 16:44:01+00:00,211.0,11.73,213.0,13.98,14.24,47.59359,-54.27349
2021-06-07 16:54:01+00:00,212.0,11.46,216.0,13.14,14.24,47.59359,-54.27349
2021-06-07 17:04:01+00:00,208.0,10.12,212.0,11.92,14.24,47.59359,-54.27349
2021-06-07 17:14:01+00:00,210.0,11.51,211.0,13.46,14.16,47.59359,-54.27349
2021-06-07 17:24:01+00:00,205.0,10.81,199.0,12.45,14.16,47.59359,-54.27349
2021-06-07 17:34:01+00:00,202.0,10.9,211.0,12.4,14.16,47.59359,-54.27349
2021-06-07 17:44:01+00:00,207.0,11.35,209.0,13.11,14.16,47.59359,-54.27349
2021-06-07 17:54:01+00:00,206.0,10.65,217.0,12.07,14.16,47.59359,-54.27349
2021-06-07 18:04:01+00:00,205.0,11.32,211.0,12.21,14.16,47.59359,-54.27349
2021-06-07 18:14:01+00:00,204.0,10.82,212.0,12.64,13.76,47.59359,-54.27349
2021-06-07 18:24:01+00:00,205.0,10.41,202.0,11.34,13.76,47.59359,-54.27349
2021-06-07 18:34:01+00:00,205.0,11.32,213.0,13.09,13.76,47.59359,-54.27349
2021-06-07 18:44:01+00:00,205.0,10.43,202.0,12.32,13.76,47.59359,-54.27349
2021-06-07 18:54:01+00:00,200.0,10.83,200.0,12.11,13.76,47.59359,-54.27349
2021-06-07 19:04:01+00:00,210.0,9.3,200.0,11.21,13.76,47.59359,-54.27349
2021-06-07 19:14:01+00:00,211.0,10.95,218.0,13.7,13.76,47.59359,-54.27349
2021-06-07 19:24:01+00:00,216.0,12.24,215.0,14.16,13.76,47.59359,-54.27349
2021-06-07 19:34:01+00:00,218.0,11.98,224.0,13.77,13.76,47.59359,-54.27349
2021-06-07 19:44:01+00:00,215.0,12.18,217.0,13.79,13.76,47.59359,-54.27349
2021-06-07 19:54:01+00:00,218.0,14.03,229.0,15.76,13.76,47.59359,-54.27349
2021-06-07 20:04:01+00:00,220.0,13.14,215.0,15.51,13.76,47.59359,-54.27349
2021-06-07 20:14:01+00:00,216.0,13.84,216.0,15.27,13.76,47.59359,-54.27349
2021-06-07 20:24:01+00:00,215.0,13.93,216.0,16.01,13.76,47.59359,-54.27349
2021-06-07 20:34:01+00:00,218.0,12.5,224.0,14.45,13.76,47.59359,-54.27349
2021-06-07 20:44:01+00:00,219.0,12.03,217.0,13.6,13.76,47.59359,-54.27349
2021-06-07 20:54:01+00:00,217.0,12.23,216.0,14.02,13.76,47.59359,-54.27349
2021-06-07 21:04:01+00:00,220.0,11.45,222.0,13.33,13.76,47.59359,-54.27349
2021-06-07 21:14:01+00:00,215.0,12.15,216.0,13.85,13.53,47.59359,-54.27349
2021-06-07 21:24:01+00:00,215.0,11.61,213.0,13.24,13.53,47.59359,-54.27349
2021-06-07 21:34:01+00:00,216.0,11.93,217.0,13.42,13.53,47.59359,-54.27349
2021-06-07 21:44:01+00:00,220.0,12.17,220.0,13.27,13.53,47.59359,-54.27349
2021-06-07 21:54:01+00:00,218.0,9.01,219.0,10.42,13.53,47.59359,-54.27349
2021-06-07 22:04:01+00:00,218.0,10.22,217.0,11.79,13.53,47.59359,-54.27349
2021-06-07 22:14:01+00:00,218.0,11.72,220.0,13.58,13.37,47.59359,-54.27349
2021-06-07 22:24:01+00:00,221.0,11.64,217.0,13.15,13.37,47.59359,-54.27349
2021-06-07 22:34:01+00:00,220.0,12.18,221.0,14.27,13.37,47.59359,-54.27349
2021-06-07 22:44:01+00:00,219.0,10.99,218.0,12.62,13.37,47.59359,-54.27349
2021-06-07 22:54:01+00:00,218.0,10.65,216.0,12.03,13.37,47.59359,-54.27349
2021-06-07 23:04:01+00:00,215.0,11.3,215.0,12.89,13.37,47.59359,-54.27349
2021-06-07 23:14:01+00:00,219.0,10.74,216.0,12.21,12.97,47.59359,-54.27349
2021-06-07 23:24:01+00:00,218.0,10.49,221.0,11.78,12.97,47.59359,-54.27349
2021-06-07 23:34:01+00:00,223.0,10.87,221.0,12.36,12.97,47.59359,-54.27349
2021-06-07 23:44:01+00:00,216.0,9.91,216.0,11.33,12.97,47.59359,-54.27349
2021-06-07 23:54:01+00:00,214.0,11.08,216.0,12.86,12.97,47.59359,-54.27349
